EW4479 Weather Reports


time (UTC)temp
F
wind
direction
speed
knots
gust
knots
rain 1hr
in
rain 24hr
in
rain mn
in
humidity
%
barometer
mb
20230207120500 31 81 3.5 9.6 0.00 0.00 0.00 78 1036.2
20230207115500 31 84 4.3 8.7 0.00 0.00 0.00 79 1036.2
20230207114958 31 85 3.5 8.7 0.00 0.00 0.00 79 1036.1
20230207114459 31 83 3.5 7.8 0.00 0.00 0.00 80 1036.3
20230207113953 31 83 4.3 7.0 0.00 0.00 0.00 80 1036.3
20230207113454 30 78 4.3 8.7 0.00 0.00 0.00 81 1036.4
20230207112452 30 75 3.5 9.6 0.00 0.00 0.00 81 1036.4
20230207111949 30 71 3.5 7.8 0.00 0.00 0.00 83 1036.6
20230207111446 30 75 3.5 7.0 0.00 0.00 0.00 84 1036.6
20230207110940 29 83 4.3 7.0 0.00 0.00 0.00 83 1036.6
20230207105433 29 67 2.6 8.7 0.00 0.00 0.00 84 1036.3
20230207103428 28 78 3.5 7.8 0.00 0.00 0.00 85 1036.2
20230207102429 28 69 3.5 11.3 0.00 0.00 0.00 87 1036.3
20230207101428 27 74 6.1 9.6 0.00 0.00 0.00 87 1036.5
20230207095941 26 76 3.5 12.2 0.00 0.00 0.00 88 1036.6
20230207095432 26 68 4.3 8.7 0.00 0.00 0.00 87 1036.5
20230207094932 26 88 5.2 8.7 0.00 0.00 0.00 88 1036.5
20230207094433 26 77 4.3 8.7 0.00 0.00 0.00 88 1036.4
20230207093931 26 90 4.3 9.6 0.00 0.00 0.00 88 1036.5
20230207093429 25 84 4.3 9.6 0.00 0.00 0.00 88 1036.6
20230207092430 25 89 2.6 7.8 0.00 0.00 0.00 89 1036.4
20230207091930 25 67 3.5 7.8 0.00 0.00 0.00 89 1036.4
20230207091429 25 83 3.5 7.8 0.00 0.00 0.00 89 1036.4
20230207090429 25 62 3.5 7.8 0.00 0.00 0.00 89 1036.3
20230207085930 25 72 4.3 8.7 0.00 0.00 0.00 89 1036.2
20230207084429 24 82 3.5 7.8 0.00 0.01 0.00 90 1036.1
20230207083930 24 88 3.5 7.8 0.00 0.01 0.00 90 1036.1
20230207083429 23 92 4.3 7.8 0.00 0.01 0.00 89 1035.9
20230207082930 23 88 3.5 11.3 0.00 0.01 0.00 90 1036.1
20230207082428 23 82 6.1 11.3 0.00 0.01 0.00 90 1035.9
20230207081929 23 94 3.5 9.6 0.00 0.01 0.00 90 1036.1
20230207081429 23 92 4.3 9.6 0.00 0.01 0.00 90 1035.9
20230207080939 22 100 3.5 8.7 0.00 0.01 0.00 90 1035.9
20230207080429 22 90 3.5 8.7 0.00 0.01 0.00 91 1035.8
20230207075929 22 85 2.6 7.0 0.00 0.01 0.00 91 1036.1
20230207075428 22 97 3.5 8.7 0.00 0.01 0.00 92 1036.1
20230207074430 22 71 3.5 8.7 0.00 0.01 0.00 92 1036.2
20230207073930 21 83 3.5 8.7 0.00 0.01 0.00 93 1036.2
20230207073429 21 121 2.6 5.2 0.00 0.01 0.00 93 1036.2
20230207072432 20 90 2.6 7.0 0.00 0.01 0.00 93 1036.3
20230207071429 20 93 1.7 6.1 0.00 0.01 0.00 93 1036.1
20230207070928 20 90 2.6 6.1 0.00 0.01 0.00 93 1036.1
20230207070423 20 86 3.5 6.1 0.00 0.01 0.00 93 1036.2
20230207065926 20 90 1.7 7.0 0.00 0.01 0.00 93 1036.3
20230207064912 20 94 3.5 7.0 0.00 0.01 0.00 93 1036.2
20230207064410 20 90 5.2 7.0 0.00 0.01 0.00 93 1036.1
20230207063909 20 88 2.6 5.2 0.00 0.01 0.00 93 1036.2
20230207063410 20 89 3.5 5.2 0.00 0.01 0.00 93 1036.2
20230207062906 20 92 1.7 5.2 0.00 0.01 0.00 93 1036.2
20230207062403 20 88 1.7 3.5 0.00 0.01 0.00 93 1036.1
20230207061904 20 97 0.9 2.6 0.00 0.01 0.00 93 1036.1
20230207061402 20 97 1.7 2.6 0.00 0.01 0.00 93 1035.8
20230207060403 20 88 1.7 3.5 0.00 0.01 0.00 93 1036.2
20230207055902 20 89 0.9 5.2 0.00 0.01 0.00 93 1035.9
20230207055416 20 90 1.7 5.2 0.00 0.01 0.00 93 1035.9
20230207054902 20 88 1.7 3.5 0.00 0.01 0.00 93 1035.7
20230207054401 20 89 0.9 1.7 0.00 0.01 0.00 93 1035.8
20230207053903 20 89 0.9 3.5 0.00 0.01 0.00 92 1035.7
20230207052902 20 89 0.9 3.5 0.00 0.01 0.00 93 1035.8
20230207052400 20 78 1.7 3.5 0.00 0.01 0.00 92 1035.7
20230207051401 20 91 1.7 5.2 0.00 0.01 0.00 92 1035.7
20230207050913 21 86 0.9 3.5 0.00 0.01 0.00 92 1035.6
20230207050351 21 86 0.0 3.5 0.00 0.01 0.00 92 1035.4
20230207044841 21 86 0.9 6.1 0.00 0.01 0.00 92 1035.5
20230207044339 21 92 1.7 4.3 0.00 0.01 0.00 92 1035.6
20230207043840 21 88 1.7 5.2 0.00 0.01 0.00 92 1035.6
20230207043340 21 88 2.6 6.1 0.00 0.01 0.00 92 1035.6
20230207042833 21 92 2.6 6.1 0.00 0.01 0.00 92 1035.7
20230207040830 21 88 2.6 5.2 0.00 0.01 0.00 92 1035.8
20230207035829 22 88 1.7 6.1 0.00 0.01 0.00 92 1035.7
20230207035329 22 91 3.5 7.8 0.00 0.01 0.00 92 1035.7
20230207034330 22 94 3.5 9.6 0.00 0.01 0.00 92 1035.6
20230207033832 22 97 4.3 9.6 0.00 0.01 0.00 92 1035.7
20230207032829 22 91 3.5 7.8 0.00 0.01 0.00 92 1036.1
20230207032328 22 90 4.3 7.8 0.00 0.01 0.00 92 1036.3
20230207031828 22 113 4.3 7.8 0.00 0.01 0.00 92 1036.3
20230207031330 22 84 5.2 7.8 0.00 0.01 0.00 92 1036.1
20230207030829 22 77 3.5 8.7 0.00 0.01 0.00 92 1036.1
20230207030329 22 92 4.3 8.7 0.00 0.01 0.00 92 1036.1
20230207025829 22 82 4.3 9.6 0.00 0.01 0.00 92 1036.1
20230207025329 22 80 4.3 9.6 0.00 0.01 0.00 91 1035.9
20230207024329 22 86 5.2 7.8 0.00 0.01 0.00 92 1035.7
20230207023829 22 84 4.3 7.8 0.00 0.01 0.00 91 1035.7
20230207023328 22 94 5.2 7.8 0.00 0.01 0.00 91 1035.6
20230207022829 23 94 3.5 8.7 0.00 0.01 0.00 91 1035.7
20230207022328 23 87 3.5 8.7 0.00 0.01 0.00 91 1035.6
20230207021828 23 94 3.5 7.8 0.00 0.01 0.00 91 1035.7
20230207021332 23 92 4.3 7.8 0.00 0.01 0.00 92 1035.6
20230207020359 23 85 4.3 8.7 0.00 0.01 0.00 92 1035.5
20230207015832 23 92 4.3 8.7 0.00 0.01 0.00 92 1035.4
20230207015330 23 88 4.3 8.7 0.00 0.01 0.00 92 1035.4
20230207014828 23 80 3.5 7.8 0.00 0.01 0.00 92 1035.5
20230207014330 23 84 3.5 8.7 0.00 0.01 0.00 92 1035.4
20230207013829 23 83 3.5 8.7 0.00 0.01 0.00 92 1035.5
20230207013330 23 94 5.2 8.7 0.00 0.01 0.00 92 1035.3
20230207012829 23 82 2.6 7.8 0.00 0.01 0.00 92 1035.3
20230207012330 23 80 3.5 7.0 0.00 0.01 0.00 91 1035.3
20230207011849 24 78 3.5 7.0 0.00 0.01 0.00 92 1035.3
20230207011329 24 92 2.6 7.0 0.00 0.01 0.00 92 1035.2
20230207010843 24 83 2.6 7.8 0.00 0.01 0.00 91 1035.1
20230207005831 24 107 3.5 7.8 0.00 0.01 0.00 91 1034.9
20230207005328 24 105 3.5 7.8 0.00 0.01 0.00 91 1035.1
20230207004829 24 94 3.5 7.8 0.00 0.01 0.00 91 1035.1
20230207002829 24 84 4.3 8.7 0.00 0.01 0.00 91 1035.2
20230207002329 24 92 3.5 8.7 0.00 0.01 0.00 91 1035.3
20230207001328 24 84 3.5 7.0 0.00 0.01 0.00 91 1035.3
20230207000329 24 91 4.3 7.8 0.00 0.01 0.00 90 1035.5
20230206235842 24 81 4.3 8.7 0.00 0.01 0.00 90 1035.4
20230206235327 24 96 3.5 8.7 0.00 0.01 0.00 91 1035.5
20230206234832 24 86 2.6 8.7 0.00 0.01 0.00 90 1035.5
20230206234323 24 93 2.6 7.0 0.00 0.01 0.00 90 1035.5
20230206233817 24 94 2.6 7.0 0.00 0.01 0.00 90 1035.4
20230206233316 24 82 3.5 6.1 0.00 0.01 0.00 90 1035.2
20230206232815 24 84 2.6 6.1 0.00 0.01 0.00 90 1035.0
20230206231815 24 87 1.7 6.1 0.00 0.01 0.00 90 1035.0
20230206231311 24 91 3.5 6.1 0.00 0.01 0.00 90 1034.9
20230206230810 25 80 4.3 6.1 0.00 0.01 0.00 90 1034.9
20230206225306 25 94 1.7 7.0 0.00 0.01 0.01 89 1034.6
20230206224806 25 89 1.7 6.1 0.00 0.01 0.01 89 1034.5
20230206224305 25 89 1.7 6.1 0.00 0.01 0.01 89 1034.6
20230206223803 25 88 3.5 5.2 0.00 0.01 0.01 88 1034.7
20230206222801 25 92 1.7 4.3 0.00 0.01 0.01 88 1034.8
20230206222301 26 90 1.7 5.2 0.00 0.01 0.01 88 1034.8
20230206221757 26 85 2.6 6.1 0.00 0.01 0.01 88 1034.8
20230206221252 26 86 3.5 7.0 0.00 0.01 0.01 88 1034.9
20230206220749 26 91 1.7 7.0 0.00 0.01 0.01 88 1035.0
20230206215750 26 94 3.5 7.0 0.00 0.01 0.01 87 1035.0
20230206215241 26 82 3.5 7.0 0.00 0.01 0.01 87 1035.0
20230206214737 26 94 4.3 7.0 0.00 0.01 0.01 87 1035.1
20230206214238 26 87 2.6 5.2 0.00 0.01 0.01 88 1035.1
20230206213737 26 92 2.6 6.1 0.00 0.01 0.01 89 1035.1
20230206213236 26 90 3.5 6.1 0.00 0.01 0.01 89 1035.3
20230206212737 26 80 2.6 7.0 0.00 0.01 0.01 90 1035.2
20230206212234 26 84 3.5 7.0 0.00 0.01 0.01 91 1035.1
20230206211731 26 88 2.6 7.0 0.00 0.01 0.01 91 1035.1
20230206211232 26 88 3.5 5.2 0.00 0.01 0.01 92 1035.2
20230206210229 26 96 1.7 5.2 0.00 0.02 0.01 93 1035.1
20230206205229 27 65 0.0 2.6 0.00 0.02 0.01 93 1035.1
20230206204728 27 69 0.0 1.7 0.00 0.02 0.01 92 1035.1
20230206204228 27 69 0.9 1.7 0.00 0.02 0.01 92 1035.1
20230206203728 27 65 1.7 1.7 0.00 0.02 0.01 92 1035.1
20230206203231 27 65 0.9 2.6 0.00 0.02 0.01 92 1034.9
20230206202732 27 65 1.7 2.6 0.00 0.02 0.01 92 1034.9
20230206202230 27 65 0.0 1.7 0.00 0.02 0.01 92 1034.8
20230206201228 28 65 0.9 2.6 0.00 0.02 0.01 92 1035.0
20230206200730 28 65 1.7 2.6 0.00 0.02 0.01 92 1035.1
20230206200229 28 65 0.9 2.6 0.00 0.02 0.01 92 1035.0
20230206195729 28 65 0.9 2.6 0.00 0.02 0.01 92 1035.0
20230206195229 28 58 0.0 0.9 0.00 0.02 0.01 92 1034.9
20230206194729 28 58 0.0 0.9 0.00 0.02 0.01 92 1034.9
20230206193232 28 55 1.7 2.6 0.00 0.02 0.01 91 1034.9
20230206191732 28 40 0.0 1.7 0.00 0.02 0.01 91 1034.8
20230206191228 28 40 0.0 0.9 0.00 0.02 0.01 91 1034.8
20230206190728 28 40 0.0 1.7 0.00 0.02 0.01 91 1034.8
20230206190230 28 40 0.9 1.7 0.00 0.02 0.01 91 1034.8
20230206185241 28 40 0.0 1.7 0.00 0.02 0.01 90 1035.1
20230206184729 28 32 0.0 0.0 0.00 0.02 0.01 90 1035.1
20230206184228 28 30 0.0 0.0 0.00 0.02 0.01 90 1035.1
20230206183229 29 30 0.0 0.0 0.00 0.02 0.01 90 1035.1
20230206182729 29 29 0.0 0.0 0.00 0.02 0.01 90 1035.1
20230206182229 29 29 0.0 0.0 0.00 0.02 0.01 89 1035.0
20230206181228 29 32 0.0 0.0 0.00 0.02 0.01 89 1034.9
20230206180722 29 32 0.0 0.9 0.00 0.02 0.01 89 1035.0
20230206175212 29 26 0.0 0.9 0.00 0.02 0.01 88 1035.4
20230206174210 29 32 0.0 1.7 0.00 0.02 0.01 87 1035.2
20230206173708 29 32 0.0 1.7 0.00 0.02 0.01 87 1035.1
20230206173205 29 5 0.0 1.7 0.00 0.02 0.01 87 1035.1
20230206171703 29 355 0.0 0.9 0.00 0.02 0.01 85 1034.9
20230206171229 29 355 0.0 0.9 0.00 0.02 0.01 84 1034.8
20230206170702 29 298 0.0 1.7 0.00 0.02 0.01 84 1034.6
20230206170203 29 355 0.0 1.7 0.00 0.02 0.01 84 1034.6
20230206165702 29 298 0.0 0.0 0.00 0.02 0.01 84 1034.7
20230206165201 29 298 0.0 1.7 0.00 0.02 0.01 84 1034.7
20230206164702 29 355 0.9 2.6 0.00 0.02 0.01 84 1034.6
20230206164201 29 344 0.0 2.6 0.00 0.02 0.01 84 1034.3
20230206163713 29 294 0.0 1.7 0.00 0.02 0.01 83 1034.3
20230206163201 29 15 0.0 0.9 0.00 0.02 0.01 82 1034.3
20230206162706 29 15 0.0 0.9 0.00 0.02 0.01 82 1034.3
20230206162203 29 15 0.0 0.9 0.00 0.02 0.01 82 1034.2
20230206161704 29 300 0.0 1.7 0.00 0.02 0.01 80 1034.4
20230206160704 29 15 0.0 0.9 0.00 0.02 0.01 80 1034.4
20230206160202 29 15 0.0 0.0 0.00 0.02 0.01 80 1034.2
20230206155203 29 15 0.0 0.9 0.00 0.02 0.01 81 1034.2
20230206154702 29 300 0.0 0.0 0.00 0.02 0.01 81 1034.4
20230206153701 29 300 0.0 0.0 0.00 0.02 0.01 81 1034.5
20230206153201 29 300 0.0 0.0 0.00 0.02 0.01 81 1034.4
20230206152700 29 300 0.0 2.6 0.00 0.02 0.01 82 1034.4
20230206152202 29 300 0.0 3.5 0.00 0.02 0.01 80 1034.3
20230206151702 29 337 0.9 3.5 0.00 0.03 0.01 80 1034.3
20230206151202 29 65 0.0 2.6 0.00 0.03 0.01 81 1034.5
20230206150200 29 61 0.0 0.9 0.00 0.03 0.01 82 1034.5
20230206145700 29 61 0.0 1.7 0.00 0.03 0.01 81 1034.4
20230206144702 29 54 0.9 2.6 0.00 0.03 0.01 82 1034.5
20230206144203 29 62 0.9 2.6 0.00 0.03 0.01 82 1034.5
20230206143702 29 34 0.0 2.6 0.00 0.03 0.01 83 1034.5
20230206143202 29 30 0.9 2.6 0.00 0.03 0.01 81 1034.4
20230206142202 29 52 0.9 2.6 0.00 0.03 0.01 84 1034.6
20230206141203 30 68 0.9 3.5 0.00 0.03 0.01 83 1034.6
20230206140201 30 63 0.0 3.5 0.00 0.03 0.01 82 1034.7
20230206135201 30 43 0.0 4.3 0.00 0.03 0.01 82 1034.5
20230206134659 29 59 0.9 4.3 0.00 0.03 0.01 82 1034.5
20230206134154 30 75 0.9 4.3 0.00 0.04 0.01 82 1034.6
20230206133651 30 329 1.7 4.3 0.00 0.04 0.01 83 1034.5
20230206132651 30 29 0.0 2.6 0.00 0.04 0.01 84 1034.4
20230206131646 29 49 1.7 3.5 0.00 0.04 0.01 84 1034.5
20230206131146 29 5 0.9 3.5 0.00 0.04 0.01 86 1034.4
20230206130642 29 57 0.9 2.6 0.00 0.04 0.01 86 1034.4
20230206125636 30 35 0.0 2.6 0.00 0.04 0.01 86 1034.6
20230206125130 30 53 0.9 2.6 0.00 0.05 0.01 86 1034.8
20230206124630 30 17 0.9 4.3 0.00 0.05 0.01 86 1034.7
20230206124129 29 23 0.9 4.3 0.00 0.05 0.01 86 1035.1
20230206123629 29 18 0.9 2.6 0.00 0.05 0.01 87 1035.3
20230206123128 29 53 0.9 2.6 0.00 0.05 0.01 87 1035.2
20230206122629 29 349 1.7 2.6 0.00 0.05 0.01 88 1035.2
20230206121121 30 53 1.7 3.5 0.00 0.05 0.01 87 1035.0